FREGAT DEB, 45640

Orbit data source: Space-Track

FREGAT DEB, 45640 is space debris in LEO originally from a launch on Mon, 18 Jul 2011 UTC launched from the Tyuratam Missile And Space Complex (TTMTR). Debris objects in space refer to the collection of defunct objects orbiting the Earth. Examples of debris include non-operational satellites, rocket bodies, and fragments generated from explosions, collisions, or faulty payload assembly.

Loading next visibility...
Identifier
45640, 2011-037AG
Orbit
LEO
Last TLE update
5 months ago
Origin
Manufacturer
Lavochkin
Mission
Spacecraft
Bus & Motor
Unknown
Mass
Unknown
Launch date (UTC)
2011-07-18 (14 years ago)
Launch vehicle
Unknown
Launch site
Tyuratam Missile And Space Complex (TTMTR)
Object type
Payload
Rocket body
Debris
Shape & HBR
Unknown
Radar Cross Section
Small (<0.1 m²)

Expand to show TLE details & history

TLE from 5 months ago
0 FREGAT DEB
1 45640U 11037AG  24330.85900094 -.00000134  00000-0  00000-0 0  9997
2 45640  50.8815 206.6247 0994687  76.5920 294.3727 12.71158316 58245
Epoch: 2024-11-25T20:36Z
Definitive object data (Epoch: 2024-11-25T20:36:57.681Z)
Latitude
0.00006°
Longitude
-167.89288°
Altitude
1,126.858 km
Speed
7.407 km/s
True Right ascension
13h 46m 29s
True Declination
0° 00' 00"
Sunlit
Object was in daylight at TLE epoch
Visualization TLE readout
Latitude
48.32921°
Longitude
134.7334°
Altitude
682.097 km
Speed
7.854 km/s
Apparent Right ascension
06h 22m 24s
Apparent Declination
11° 19' 12"
Sunlit
Object is in daylight
Visualization observer readout
Local Sidereal Time
14:59:53
Azimuth
305.947° NW
Elevation
-20.556°
Doppler factor
1
Orbital elements
Apogee altitude
2,149.262 km
Perigee altitude
606.318 km
Semi-major axis
7,755.927 km
Eccentricity
0.0994687
Inclination
50.8815°
RAAN
206.6247°
Arg. of periapsis
76.592°
True anomaly
283.49609°
Mean anomaly
294.3727°
Eccentric anomaly
288.98353°
Mean motion
3.17755 °/min
BSTAR
Unknown
Orbital period
113.29 mins
Loading maneuver chart data...
Loading SW <> Apogee altitude chart data...
Loading historical data...
Loading historical data...
Loading historical data...
Loading historical data...
Loading historical data...
Loading historical data...
Loading historical data...

FREGAT DEB Visibility forecast

Observer location: undefined°, undefined°

Span
Click to sort rows by Start time (UTC) header in descending order
Start Az.
Max El. time (UTC)
Max El. Az.
Max El.
End time (UTC)
End Az.
4 mins2025-05-09 17:45:59.418Z138.588° SSE2025-05-09 17:47:59.418Z126.278° SE11.15°2025-05-09 17:49:59.418Z112.908° SE
14 mins2025-05-09 19:38:59.418Z204.236° SW2025-05-09 19:46:59.418Z128.997° SE36.884°2025-05-09 19:52:59.418Z64.841° ENE
12 mins2025-05-09 21:38:59.418Z256.007° W2025-05-09 21:44:59.418Z316.011° NNW39.299°2025-05-09 21:50:59.418Z48.741° ENE
7 mins2025-05-09 23:40:59.418Z303.925° NW2025-05-09 23:44:59.418Z355.379° N24.188°2025-05-09 23:47:59.418Z41.326° NE
7 mins2025-05-10 01:40:59.418Z320.519° NNW2025-05-10 01:43:59.418Z7.456° NNE29.071°2025-05-10 01:47:59.418Z83.727° E
6 mins2025-05-10 03:39:59.418Z288.269° WNW2025-05-10 03:42:59.418Z209.613° SW35.513°2025-05-10 03:45:59.418Z153.203° SSE
|